Voltar ao catálogo

HYDRA-3

AtivoCiênciaSSO
NORAD 69022·PAYLOAD·🇧🇬 Bulgaria

Lançado May 3, 2026 de Vandenberg Space Force Base

Loading…

Próximas Passagens (próximas 24 horas)

TLE

AtualizadoSource: Space-Track

Época: Sep 14, 2026, 03:51 UTC

1 69022U 26100AU  26257.16059998  .00004090  00000-0  18937-3 0  9991
2 69022  97.3895 153.2337 0006243  54.5896 305.5922 15.20648458 20324

Acompanhe HYDRA-3 em tempo real com AllMySat

Download on the App Store